Home   Weather   Wiluna   Past weeks
Flag for Australia

Past Weather in Wiluna, Western Australia, Australia — Yesterday and Last 2 Weeks

Now
87 °F

Pleasantly warm.


Feels Like: 83 °F
Forecast: 80 / 55 °F
Wind: 7 mph from Northwest

Location: Leonora Leinster Aerodrome Aws

Current Time: Oct 14, 2019 at 1:29:21 pm

Latest Report: Oct 14, 2019 at 12:00 pm


Visibility: N/A

Pressure: 29.84 "Hg (28.14 "Hg at 521m altitude)

Humidity: 19%

Dew Point: 39 °F

Location of WilunaLocation

Past Weather in Wiluna — Graph

°F

Wiluna Temperature Yesterday

Maximum temperature yesterday: 86 °F (at 5:00 pm)
Minimum temperature yesterday: 61 °F (at 6:00 am)
Average temperature yesterday: 74 °F

High & Low Weather Summary for the Past Weeks

 TemperatureHumidityPressure
High102 °F (Oct 9, 2:00 pm)67% (Oct 5, 6:00 am)30.14 "Hg (Oct 5, 6:00 am)
Low56 °F (Oct 5, 6:00 am)6% (Oct 10, 12:00 pm)29.76 "Hg (Oct 12, 3:00 am)
Average79 °F23%29.94 "Hg
* Reported Sep 29 12:00 pm — Oct 14 12:00 pm, Wiluna. Weather by CustomWeather, © 2019

Note: Actual official high and low records may vary slightly from our data, if they occured in-between our weather recording intervals... More about our weather records

Advertising

Wiluna Weather History for the Previous 24 Hours

Scroll right to see more
 ConditionsComfort  
Time TempWeatherWind HumidityBarometerVisibility
12:00 pm
Mon, Oct 14
87 °FPleasantly warm.7 mph19%29.84 "HgN/A
11:00 am84 °FPleasantly warm.6 mph23%29.86 "HgN/A
9:00 am76 °FMild.6 mph28%29.88 "HgN/A
8:00 am71 °FMild.8 mph29%29.88 "HgN/A
6:00 am64 °FMild.6 mph32%29.86 "HgN/A
5:00 am64 °FMild.7 mph32%29.84 "HgN/A
3:00 am67 °FMild.8 mph32%29.82 "HgN/A
2:00 am69 °FMild.7 mph31%29.82 "HgN/A
12:00 am72 °FMild.8 mph32%29.83 "HgN/A
11:00 pm
Sun, Oct 13
73 °FMild.6 mph32%29.84 "HgN/A
9:00 pm77 °FMild.7 mph29%29.84 "HgN/A
8:00 pm79 °FPleasantly warm.7 mph27%29.83 "HgN/A
6:00 pm84 °FPleasantly warm.6 mph23%29.81 "HgN/A
5:00 pm86 °FPleasantly warm.3 mph21%29.80 "HgN/A
3:00 pm85 °FPleasantly warm.8 mph23%29.80 "HgN/A
2:00 pm85 °FPleasantly warm.6 mph25%29.82 "HgN/A
Weather by CustomWeather, © 2019

See weather overview